TimePST,TemperatureF,Dew PointF,Humidity,Sea Level PressureIn,VisibilityMPH,Wind Direction,Wind SpeedMPH,Gust SpeedMPH,PrecipitationIn,Events,Conditions,WindDirDegrees,DateUTC
12:20 AM,53.6,53.6,100,30.12,1.0,North,3.5,-,N/A,,Overcast,350,2012-11-25 08:20:00
12:35 AM,53.6,53.6,100,30.12,2.0,Calm,Calm,-,N/A,,Overcast,0,2012-11-25 08:35:00
12:53 AM,53.1,53.1,100,30.14,1.0,NNW,3.5,-,N/A,,Overcast,330,2012-11-25 08:53:00
1:29 AM,53.6,53.6,100,30.12,2.5,North,6.9,-,N/A,,Overcast,350,2012-11-25 09:29:00
1:48 AM,53.6,53.6,100,30.11,0.8,NNW,8.1,-,N/A,,Overcast,340,2012-11-25 09:48:00
1:53 AM,53.1,53.1,100,30.13,0.5,NNW,8.1,-,N/A,Fog,Fog,340,2012-11-25 09:53:00
2:06 AM,53.6,53.6,100,30.11,1.5,NNW,8.1,-,N/A,,Overcast,340,2012-11-25 10:06:00
2:15 AM,53.6,53.6,100,30.11,2.5,North,6.9,-,N/A,,Overcast,350,2012-11-25 10:15:00
2:22 AM,53.6,53.6,100,30.11,3.0,NNW,5.8,-,N/A,,Overcast,340,2012-11-25 10:22:00
2:53 AM,52.0,52.0,100,30.12,3.0,NNW,3.5,-,N/A,,Overcast,330,2012-11-25 10:53:00
3:04 AM,51.8,51.8,100,30.10,2.5,NNW,5.8,-,N/A,,Overcast,330,2012-11-25 11:04:00
3:19 AM,51.8,51.8,100,30.09,3.0,NNW,6.9,-,N/A,,Overcast,340,2012-11-25 11:19:00
4:40 AM,50.0,50.0,100,30.09,3.0,Calm,Calm,-,N/A,,Overcast,0,2012-11-25 12:40:00
4:53 AM,50.0,50.0,100,30.11,3.0,Calm,Calm,-,N/A,,Overcast,0,2012-11-25 12:53:00
5:35 AM,50.0,50.0,100,30.08,9.0,Calm,Calm,-,N/A,,Overcast,0,2012-11-25 13:35:00
5:53 AM,51.1,50.0,96,30.10,10.0,Calm,Calm,-,N/A,,Overcast,0,2012-11-25 13:53:00
6:11 AM,51.8,51.8,100,30.08,2.5,North,4.6,-,N/A,,Overcast,350,2012-11-25 14:11:00
6:18 AM,51.8,51.8,100,30.08,3.0,North,3.5,-,N/A,,Overcast,350,2012-11-25 14:18:00
6:27 AM,51.8,51.8,100,30.08,2.5,NNW,4.6,-,N/A,,Overcast,340,2012-11-25 14:27:00
6:39 AM,51.8,51.8,100,30.08,3.0,Calm,Calm,-,N/A,,Overcast,0,2012-11-25 14:39:00
6:53 AM,52.0,52.0,100,30.10,2.0,Calm,Calm,-,N/A,,Overcast,0,2012-11-25 14:53:00
7:00 AM,51.8,51.8,100,30.08,1.5,Calm,Calm,-,N/A,,Overcast,0,2012-11-25 15:00:00
7:28 AM,51.8,51.8,100,30.07,0.8,Calm,Calm,-,N/A,,Overcast,0,2012-11-25 15:28:00
7:53 AM,52.0,52.0,100,30.09,0.5,Calm,Calm,-,N/A,Fog,Fog,0,2012-11-25 15:53:00
8:08 AM,51.8,51.8,100,30.08,0.2,Calm,Calm,-,N/A,Fog,Fog,0,2012-11-25 16:08:00
8:20 AM,51.8,51.8,100,30.08,0.8,Calm,Calm,-,N/A,,Overcast,0,2012-11-25 16:20:00
8:27 AM,51.8,51.8,100,30.08,1.8,Calm,Calm,-,N/A,,Overcast,0,2012-11-25 16:27:00
8:41 AM,51.8,51.8,100,30.08,0.5,Calm,Calm,-,N/A,Fog,Fog,0,2012-11-25 16:41:00
8:53 AM,51.1,51.1,100,30.10,0.5,Calm,Calm,-,N/A,Fog,Fog,0,2012-11-25 16:53:00
9:04 AM,51.8,51.8,100,30.08,2.0,Calm,Calm,-,N/A,,Overcast,0,2012-11-25 17:04:00
9:19 AM,51.8,51.8,100,30.08,1.0,Calm,Calm,-,N/A,,Overcast,0,2012-11-25 17:19:00
9:29 AM,51.8,51.8,100,30.08,0.8,ESE,3.5,-,N/A,,Overcast,120,2012-11-25 17:29:00
9:37 AM,51.8,51.8,100,30.08,2.0,ESE,3.5,-,N/A,,Overcast,120,2012-11-25 17:37:00
9:45 AM,51.8,51.8,100,30.07,5.0,SSE,4.6,-,N/A,,Overcast,150,2012-11-25 17:45:00
9:53 AM,51.1,51.1,100,30.09,8.0,SSW,4.6,-,N/A,,Overcast,200,2012-11-25 17:53:00
10:53 AM,52.0,52.0,100,30.09,10.0,Calm,Calm,-,N/A,,Overcast,0,2012-11-25 18:53:00
11:08 AM,53.6,51.8,94,30.06,10.0,Calm,Calm,-,N/A,,Overcast,0,2012-11-25 19:08:00
11:51 AM,53.6,51.8,94,30.05,6.0,NW,4.6,-,N/A,,Overcast,310,2012-11-25 19:51:00
11:53 AM,54.0,52.0,93,30.06,6.0,WNW,4.6,-,N/A,,Overcast,300,2012-11-25 19:53:00
12:02 PM,53.6,51.8,94,30.04,6.0,NW,5.8,-,N/A,,Overcast,310,2012-11-25 20:02:00
12:53 PM,53.1,51.1,93,30.05,10.0,NW,4.6,-,N/A,,Overcast,310,2012-11-25 20:53:00
1:05 PM,53.6,51.8,94,30.03,8.0,NW,4.6,-,N/A,,Overcast,320,2012-11-25 21:05:00
1:53 PM,54.0,52.0,93,30.03,9.0,NW,5.8,-,N/A,,Overcast,310,2012-11-25 21:53:00
2:53 PM,53.1,51.1,93,30.03,10.0,NW,5.8,-,N/A,,Overcast,310,2012-11-25 22:53:00
3:38 PM,51.8,51.8,100,30.01,1.8,NNW,4.6,-,N/A,,Overcast,340,2012-11-25 23:38:00
3:48 PM,51.8,51.8,100,30.01,2.5,NNW,6.9,-,N/A,,Overcast,330,2012-11-25 23:48:00
3:53 PM,52.0,51.1,97,30.02,3.0,NW,4.6,-,N/A,,Overcast,320,2012-11-25 23:53:00
4:07 PM,51.8,51.8,100,30.00,2.5,North,3.5,-,0.01,,Overcast,350,2012-11-26 00:07:00
4:29 PM,51.8,51.8,100,29.99,4.0,WNW,4.6,-,0.01,,Overcast,300,2012-11-26 00:29:00
4:51 PM,51.8,51.8,100,29.99,5.0,WNW,3.5,-,0.01,,Overcast,300,2012-11-26 00:51:00
4:53 PM,52.0,52.0,100,30.01,5.0,NW,3.5,-,0.01,,Overcast,310,2012-11-26 00:53:00
5:53 PM,52.0,51.1,97,29.99,4.0,North,3.5,-,N/A,,Overcast,10,2012-11-26 01:53:00
6:09 PM,51.8,51.8,100,29.98,5.0,NNE,3.5,-,N/A,,Overcast,20,2012-11-26 02:09:00
6:44 PM,51.8,51.8,100,29.98,4.0,NNW,3.5,-,N/A,,Overcast,330,2012-11-26 02:44:00
6:53 PM,51.1,51.1,100,29.99,5.0,Variable,4.6,-,N/A,,Overcast,0,2012-11-26 02:53:00
7:23 PM,51.8,51.8,100,29.97,6.0,North,3.5,-,N/A,,Overcast,10,2012-11-26 03:23:00
7:34 PM,51.8,51.8,100,29.97,5.0,Calm,Calm,-,N/A,,Overcast,0,2012-11-26 03:34:00
7:49 PM,51.8,51.8,100,29.97,4.0,Calm,Calm,-,N/A,,Overcast,0,2012-11-26 03:49:00
7:53 PM,52.0,51.1,97,29.99,4.0,Calm,Calm,-,N/A,,Overcast,0,2012-11-26 03:53:00
8:53 PM,52.0,51.1,97,30.00,7.0,Calm,Calm,-,N/A,,Overcast,0,2012-11-26 04:53:00
9:53 PM,52.0,50.0,93,30.00,10.0,East,3.5,-,N/A,,Overcast,100,2012-11-26 05:53:00
10:53 PM,51.1,50.0,96,30.00,10.0,Calm,Calm,-,N/A,,Overcast,0,2012-11-26 06:53:00
11:53 PM,51.1,50.0,96,30.02,10.0,Calm,Calm,-,N/A,,Overcast,0,2012-11-26 07:53:00